User: anonymous   Login
Location: Caltech
(34.1382°N, 118.1253°W)
Time: 12:50:11
(UTC-08:00)
Language:

Saudisat 1A - Orbit

View from above orbital plane
View from above orbital plane
View from above satellite
View from above satellite

Ground track
Ground track

The orbit data is extracted from the following two-line orbital elements,

1 26546U 00057B   14354.22332516  .00002686  00000-0  30196-3 0  4614
2 26546 064.5581 300.9464 0012920 324.9142 035.1115 14.88767329771083
Epoch (UTC): 20 December 2014 05:21:35
Eccentricity: 0.0012920
inclination: 64.5581°
perigee height: 593 km
apogee height: 611 km
right ascension of ascending node: 300.9464°
argument of perigee: 324.9142°
revolutions per day: 14.88767329
mean anomaly at epoch: 35.1115°
orbit number at epoch: 77108

The dashed part of the orbit path shows where the satellite is in the earth's shadow,  

DLR